Location: Mococo
(38.0255°N, 122.1161°W)
Time: 02:20:13
(UTC+00:00)

Cosmos 2123 Rocket - Pass Details

Date: 13 February 2026
Orbit: 960 x 992 km, 82.9° (Epoch: 13 March)

Event Time Altitude Azimuth Distance (km) Brightness Sun altitude
Rises 13:42:06 0° 343° (NNW) 3,674 6.8 -16.0°
Reaches altitude 10° 13:44:49 10° 335° (NNW) 2,718 6.0 -15.5°
Maximum altitude 13:50:21 35° 272° (W) 1,505 4.5 -14.4°
Drops below altitude 10° 13:55:50 10° 209° (SSW) 2,688 6.1 -13.3°
Sets 13:58:31 0° 200° (SSW) 3,628 6.9 -12.8°
